Location: Fort Wayne
(41.1310°N, 85.1290°W)
Time: 18:45:49
(UTC-04:00)

Meteor 2-10 Rocket - Visible Passes

Search period start: 26 June 2016 00:00
Search period end: 06 July 2016 00:00
Orbit: 734 x 885 km, 81.2° (Epoch: 25 June)

Date Brightness Start Highest point End Pass type
(mag) Time Alt. Az. Time Alt. Az. Time Alt. Az.
26 Jun 5.1 00:41:40 10° NNE 00:46:21 27° ENE 00:47:50 24° E visible
26 Jun 4.4 02:23:20 10° NNW 02:28:29 40° W 02:28:58 39° WSW visible
27 Jun 5.4 00:17:53 10° NNE 00:21:55 20° ENE 00:23:43 17° E visible
27 Jun 3.9 01:58:52 10° NNW 02:04:18 56° W 02:04:51 53° WSW visible
27 Jun 5.8 23:54:24 10° NNE 23:57:27 15° ENE 23:59:37 12° E visible
28 Jun 3.6 01:34:30 10° NNW 01:40:06 78° W 01:40:45 68° SSW visible
28 Jun 6.0 23:31:59 10° NE 23:32:55 10° ENE 23:33:51 10° ENE visible
29 Jun 3.6 01:10:14 10° N 01:15:52 77° E 01:16:40 65° SE visible
29 Jun 5.7 02:54:32 10° NW 02:57:12 14° W 02:57:49 13° W visible
30 Jun 4.0 00:46:03 10° N 00:51:35 56° ENE 00:52:36 49° ESE visible
30 Jun 5.4 02:29:17 10° NW 02:33:10 19° W 02:33:45 19° W visible
01 Jul 4.5 00:21:58 10° N 00:27:16 41° ENE 00:28:33 36° ESE visible
01 Jul 5.0 02:04:27 10° NNW 02:09:05 27° W 02:09:42 26° W visible
01 Jul 4.9 23:57:59 10° NNE 00:02:55 30° ENE 00:04:31 26° E visible
02 Jul 4.6 01:39:50 10° NNW 01:44:59 37° W 01:45:39 36° WSW visible
02 Jul 5.3 23:34:08 10° NNE 23:38:30 22° ENE 23:40:30 19° E visible
03 Jul 4.1 01:15:21 10° NNW 01:20:50 51° W 01:21:38 48° WSW visible
03 Jul 5.6 23:10:33 10° NNE 23:14:02 16° ENE 23:16:29 13° E visible
04 Jul 3.8 00:50:58 10° NNW 00:56:38 72° W 00:57:38 59° SSW visible
04 Jul 5.9 22:47:31 10° NE 22:49:30 12° ENE 22:51:31 10° E visible
05 Jul 3.7 00:26:41 10° N 00:32:25 84° E 00:33:38 58° SSE visible
05 Jul 5.9 02:11:19 10° WNW 02:13:40 13° W 02:14:47 12° W visible
